Location: Newark
(42.7133°N, 87.7910°W)
Time: 15:11:40
(UTC+00:00)

Vanguard 1 - Pass Details

Date: 20 September 2019
Orbit: 653 x 3830 km, 34.2° (Epoch: 20 October)

Event Time Altitude Azimuth Distance (km) Brightness Sun altitude
Rises 08:58:37 0° 246° (WSW) 7,893 - -28.3°
Reaches altitude 10° 09:04:02 10° 243° (WSW) 6,930 - -27.4°
Exits shadow 09:14:12 33° 234° (SW) 5,128 13.1 -25.8°
Maximum altitude 09:26:40 62° 170° (S) 3,538 12.6 -23.8°
Drops below altitude 10° 09:41:45 10° 95° (E) 4,873 14.5 -21.2°
Sets 09:44:48 0° 92° (E) 5,536 15.1 -20.7°
